Time,TemperatureF,DewpointF,PressureIn,WindDirection,WindDirectionDegrees,WindSpeedMPH,WindSpeedGustMPH,Humidity,HourlyPrecipIn,Conditions,Clouds,dailyrainin,SoftwareType,DateUTC
2013-07-28 00:02:00,54.1,50.1,0.00,East,89,2.3,4.7,86,0.00,,,0.00,WUHU216CR1000,2013-07-28 07:02:00,
2013-07-28 00:07:00,53.9,50.1,0.00,East,93,2.2,4.7,87,0.00,,,0.00,WUHU216CR1000,2013-07-28 07:07:00,
2013-07-28 00:12:00,53.9,50.1,0.00,East,93,2.2,4.4,87,0.00,,,0.00,WUHU216CR1000,2013-07-28 07:12:00,
2013-07-28 00:17:00,53.6,50.2,0.00,ESE,107,2.0,4.4,88,0.00,,,0.00,WUHU216CR1000,2013-07-28 07:17:00,
2013-07-28 00:22:00,53.6,50.2,0.00,ESE,107,2.0,3.8,88,0.00,,,0.00,WUHU216CR1000,2013-07-28 07:22:00,
2013-07-28 00:27:00,53.6,50.2,0.00,ESE,107,2.0,3.8,88,0.00,,,0.00,WUHU216CR1000,2013-07-28 07:27:00,
2013-07-28 00:32:00,53.7,50.4,0.00,ESE,115,2.1,4.7,88,0.00,,,0.00,WUHU216CR1000,2013-07-28 07:32:00,
2013-07-28 00:37:00,53.7,50.4,0.00,ESE,115,2.1,4.7,88,0.00,,,0.00,WUHU216CR1000,2013-07-28 07:37:00,
2013-07-28 00:42:00,53.7,50.4,0.00,ESE,115,2.1,4.7,88,0.00,,,0.00,WUHU216CR1000,2013-07-28 07:42:00,
2013-07-28 00:47:00,54.0,50.6,0.00,SE,128,2.1,4.7,88,0.00,,,0.00,WUHU216CR1000,2013-07-28 07:47:00,
2013-07-28 00:52:00,54.0,50.6,0.00,SE,128,2.1,4.6,88,0.00,,,0.00,WUHU216CR1000,2013-07-28 07:52:00,
2013-07-28 00:57:00,54.0,50.6,0.00,SE,128,2.1,4.6,88,0.00,,,0.00,WUHU216CR1000,2013-07-28 07:57:00,
2013-07-28 01:02:00,54.2,50.7,0.00,South,177,1.9,4.6,88,0.00,,,0.00,WUHU216CR1000,2013-07-28 08:02:00,
2013-07-28 01:07:00,54.2,50.7,0.00,South,177,1.9,3.9,88,0.00,,,0.00,WUHU216CR1000,2013-07-28 08:07:00,
2013-07-28 01:12:00,54.2,50.7,0.00,South,177,1.9,3.9,88,0.00,,,0.00,WUHU216CR1000,2013-07-28 08:12:00,
2013-07-28 01:17:00,54.3,50.6,0.00,South,175,1.9,4.6,87,0.00,,,0.00,WUHU216CR1000,2013-07-28 08:17:00,
2013-07-28 01:22:00,54.3,50.6,0.00,South,175,1.9,4.6,87,0.00,,,0.00,WUHU216CR1000,2013-07-28 08:22:00,
2013-07-28 01:27:00,54.3,50.6,0.00,South,175,1.9,4.6,87,0.00,,,0.00,WUHU216CR1000,2013-07-28 08:27:00,
2013-07-28 01:32:00,54.1,50.7,0.00,SSE,154,2.4,4.9,88,0.00,,,0.00,WUHU216CR1000,2013-07-28 08:32:00,
2013-07-28 01:38:00,54.1,50.7,0.00,SSE,154,2.4,4.9,88,0.00,,,0.00,WUHU216CR1000,2013-07-28 08:38:00,
2013-07-28 01:43:00,54.1,50.7,0.00,SSE,154,2.4,4.9,88,0.00,,,0.00,WUHU216CR1000,2013-07-28 08:43:00,
2013-07-28 01:48:00,54.1,50.7,0.00,SSE,167,2.5,5.0,88,0.00,,,0.00,WUHU216CR1000,2013-07-28 08:48:00,
2013-07-28 01:53:00,54.1,50.7,0.00,SSE,167,2.5,5.0,88,0.00,,,0.00,WUHU216CR1000,2013-07-28 08:53:00,
2013-07-28 01:58:00,54.1,50.7,0.00,SSE,167,2.5,5.0,88,0.00,,,0.00,WUHU216CR1000,2013-07-28 08:58:00,
2013-07-28 02:03:00,54.0,50.7,0.00,South,185,1.8,5.0,88,0.00,,,0.00,WUHU216CR1000,2013-07-28 09:03:00,
2013-07-28 02:08:00,54.0,50.7,0.00,South,185,1.8,4.5,88,0.00,,,0.00,WUHU216CR1000,2013-07-28 09:08:00,
2013-07-28 02:13:00,54.0,50.7,0.00,South,185,1.8,4.5,88,0.00,,,0.00,WUHU216CR1000,2013-07-28 09:13:00,
2013-07-28 02:18:00,54.0,50.6,0.00,SSW,212,2.5,4.9,88,0.00,,,0.00,WUHU216CR1000,2013-07-28 09:18:00,
2013-07-28 02:23:00,54.0,50.6,0.00,SSW,212,2.5,4.9,88,0.00,,,0.00,WUHU216CR1000,2013-07-28 09:23:00,
2013-07-28 02:28:00,54.0,50.6,0.00,SSW,212,2.5,4.9,88,0.00,,,0.00,WUHU216CR1000,2013-07-28 09:28:00,
2013-07-28 02:33:00,54.1,50.8,0.00,SSW,194,1.4,4.9,88,0.00,,,0.00,WUHU216CR1000,2013-07-28 09:33:00,
2013-07-28 02:38:00,54.1,50.8,0.00,SSW,194,1.4,4.1,88,0.00,,,0.00,WUHU216CR1000,2013-07-28 09:38:00,
2013-07-28 02:43:00,54.1,50.8,0.00,SSW,194,1.4,4.1,88,0.00,,,0.00,WUHU216CR1000,2013-07-28 09:43:00,
2013-07-28 02:48:00,54.0,50.7,0.00,SSW,208,2.6,4.6,88,0.00,,,0.00,WUHU216CR1000,2013-07-28 09:48:00,
2013-07-28 02:53:00,54.0,50.7,0.00,SSW,208,2.6,4.6,88,0.00,,,0.00,WUHU216CR1000,2013-07-28 09:53:00,
2013-07-28 02:58:00,54.0,50.7,0.00,SSW,208,2.6,4.6,88,0.00,,,0.00,WUHU216CR1000,2013-07-28 09:58:00,
2013-07-28 03:03:00,53.9,50.7,0.00,SSW,205,1.7,4.6,89,0.00,,,0.00,WUHU216CR1000,2013-07-28 10:03:00,
2013-07-28 03:08:00,53.9,50.7,0.00,SSW,205,1.7,3.1,89,0.00,,,0.00,WUHU216CR1000,2013-07-28 10:08:00,
2013-07-28 03:13:00,53.9,50.7,0.00,SSW,205,1.7,3.1,89,0.00,,,0.00,WUHU216CR1000,2013-07-28 10:13:00,
2013-07-28 03:18:00,53.9,50.7,0.00,SSW,212,2.1,4.7,89,0.00,,,0.00,WUHU216CR1000,2013-07-28 10:18:00,
2013-07-28 03:23:00,53.9,50.7,0.00,SSW,212,2.1,4.7,89,0.00,,,0.00,WUHU216CR1000,2013-07-28 10:23:00,
2013-07-28 03:28:00,53.9,50.7,0.00,SSW,212,2.1,4.7,89,0.00,,,0.00,WUHU216CR1000,2013-07-28 10:28:00,
2013-07-28 03:33:00,53.8,50.6,0.00,SW,223,3.1,4.7,89,0.00,,,0.00,WUHU216CR1000,2013-07-28 10:33:00,
2013-07-28 03:38:00,53.8,50.6,0.00,SW,223,3.1,4.6,89,0.00,,,0.00,WUHU216CR1000,2013-07-28 10:38:00,
2013-07-28 03:43:00,53.8,50.6,0.00,SW,223,3.1,4.6,89,0.00,,,0.00,WUHU216CR1000,2013-07-28 10:43:00,
2013-07-28 03:48:00,53.6,50.6,0.00,SW,214,3.0,4.6,89,0.00,,,0.00,WUHU216CR1000,2013-07-28 10:48:00,
2013-07-28 03:53:00,53.6,50.6,0.00,SW,214,3.0,4.6,89,0.00,,,0.00,WUHU216CR1000,2013-07-28 10:53:00,
2013-07-28 03:58:00,53.6,50.6,0.00,SW,214,3.0,4.6,89,0.00,,,0.00,WUHU216CR1000,2013-07-28 10:58:00,
2013-07-28 04:03:00,53.6,50.7,0.00,South,185,2.1,4.6,90,0.00,,,0.00,WUHU216CR1000,2013-07-28 11:03:00,
2013-07-28 04:08:00,53.6,50.7,0.00,South,185,2.1,4.2,90,0.00,,,0.00,WUHU216CR1000,2013-07-28 11:08:00,
2013-07-28 04:13:00,53.6,50.7,0.00,South,185,2.1,4.2,90,0.00,,,0.00,WUHU216CR1000,2013-07-28 11:13:00,
2013-07-28 04:18:00,53.6,50.7,0.00,South,176,2.1,4.2,90,0.00,,,0.00,WUHU216CR1000,2013-07-28 11:18:00,
2013-07-28 04:23:00,53.6,50.7,0.00,South,176,2.1,3.7,90,0.00,,,0.00,WUHU216CR1000,2013-07-28 11:23:00,
2013-07-28 04:28:00,53.6,50.7,0.00,South,176,2.1,3.7,90,0.00,,,0.00,WUHU216CR1000,2013-07-28 11:28:00,
2013-07-28 04:33:00,53.6,50.8,0.00,SSW,198,1.9,4.5,90,0.00,,,0.00,WUHU216CR1000,2013-07-28 11:33:00,
2013-07-28 04:38:00,53.6,50.8,0.00,SSW,198,1.9,4.5,90,0.00,,,0.00,WUHU216CR1000,2013-07-28 11:38:00,
2013-07-28 04:43:00,53.6,50.8,0.00,SSW,198,1.9,4.5,90,0.00,,,0.00,WUHU216CR1000,2013-07-28 11:43:00,
2013-07-28 04:48:00,53.5,50.8,0.00,SSW,204,2.1,4.5,91,0.00,,,0.00,WUHU216CR1000,2013-07-28 11:48:00,
2013-07-28 04:53:00,53.5,50.8,0.00,SSW,204,2.1,4.4,91,0.00,,,0.00,WUHU216CR1000,2013-07-28 11:53:00,
2013-07-28 04:58:00,53.5,50.8,0.00,SSW,204,2.1,4.4,91,0.00,,,0.00,WUHU216CR1000,2013-07-28 11:58:00,
2013-07-28 05:03:00,53.5,50.8,0.00,SE,125,1.3,4.4,91,0.00,,,0.00,WUHU216CR1000,2013-07-28 12:03:00,
2013-07-28 05:08:00,53.5,50.8,0.00,SE,125,1.3,3.1,91,0.00,,,0.00,WUHU216CR1000,2013-07-28 12:08:00,
2013-07-28 05:13:00,53.5,50.8,0.00,SE,125,1.3,3.1,91,0.00,,,0.00,WUHU216CR1000,2013-07-28 12:13:00,
2013-07-28 05:18:00,53.4,50.8,0.00,ENE,61,0.6,3.1,91,0.00,,,0.00,WUHU216CR1000,2013-07-28 12:18:00,
2013-07-28 05:23:00,53.4,50.8,0.00,ENE,61,0.6,2.3,91,0.00,,,0.00,WUHU216CR1000,2013-07-28 12:23:00,
2013-07-28 05:28:00,53.4,50.8,0.00,ENE,61,0.6,2.3,91,0.00,,,0.00,WUHU216CR1000,2013-07-28 12:28:00,
2013-07-28 05:33:00,53.5,50.8,0.00,SE,136,1.4,3.7,91,0.00,,,0.00,WUHU216CR1000,2013-07-28 12:33:00,
2013-07-28 05:38:00,53.5,50.8,0.00,SE,136,1.4,3.7,91,0.00,,,0.00,WUHU216CR1000,2013-07-28 12:38:00,
2013-07-28 05:43:00,53.5,50.8,0.00,SE,136,1.4,3.7,91,0.00,,,0.00,WUHU216CR1000,2013-07-28 12:43:00,
2013-07-28 05:48:00,53.3,50.8,0.00,SSE,154,2.6,5.2,91,0.00,,,0.00,WUHU216CR1000,2013-07-28 12:48:00,
2013-07-28 05:53:00,53.3,50.8,0.00,SSE,154,2.6,5.2,91,0.00,,,0.00,WUHU216CR1000,2013-07-28 12:53:00,
2013-07-28 05:58:00,53.3,50.8,0.00,SSE,154,2.6,5.2,91,0.00,,,0.00,WUHU216CR1000,2013-07-28 12:58:00,
2013-07-28 06:03:00,53.1,50.8,0.00,SSE,151,2.4,5.5,92,0.00,,,0.00,WUHU216CR1000,2013-07-28 13:03:00,
2013-07-28 06:08:00,53.1,50.8,0.00,SSE,151,2.4,5.5,92,0.00,,,0.00,WUHU216CR1000,2013-07-28 13:08:00,
2013-07-28 06:13:00,53.1,50.8,0.00,SSE,151,2.4,5.5,92,0.00,,,0.00,WUHU216CR1000,2013-07-28 13:13:00,
2013-07-28 06:18:00,53.0,50.7,0.00,SSE,153,2.3,5.5,92,0.00,,,0.00,WUHU216CR1000,2013-07-28 13:18:00,
2013-07-28 06:23:00,53.0,50.7,0.00,SSE,153,2.3,4.6,92,0.00,,,0.00,WUHU216CR1000,2013-07-28 13:23:00,
2013-07-28 06:28:00,53.0,50.7,0.00,SSE,153,2.3,4.6,92,0.00,,,0.00,WUHU216CR1000,2013-07-28 13:28:00,
2013-07-28 06:33:00,52.7,50.7,0.00,SSE,168,1.8,4.6,93,0.00,,,0.00,WUHU216CR1000,2013-07-28 13:33:00,
2013-07-28 06:38:00,52.7,50.7,0.00,SSE,168,1.8,3.9,93,0.00,,,0.00,WUHU216CR1000,2013-07-28 13:38:00,
2013-07-28 06:43:00,52.7,50.7,0.00,SSE,168,1.8,3.9,93,0.00,,,0.00,WUHU216CR1000,2013-07-28 13:43:00,
2013-07-28 06:48:00,52.7,50.7,0.00,SW,221,1.6,3.9,93,0.00,,,0.00,WUHU216CR1000,2013-07-28 13:48:00,
2013-07-28 06:53:00,52.7,50.7,0.00,SW,221,1.6,3.8,93,0.00,,,0.00,WUHU216CR1000,2013-07-28 13:53:00,
2013-07-28 06:58:00,52.7,50.7,0.00,SW,221,1.6,3.8,93,0.00,,,0.00,WUHU216CR1000,2013-07-28 13:58:00,
2013-07-28 07:03:00,53.0,50.8,0.00,SSW,197,1.5,3.8,92,0.00,,,0.00,WUHU216CR1000,2013-07-28 14:03:00,
2013-07-28 07:08:00,53.0,50.8,0.00,SSW,197,1.5,3.1,92,0.00,,,0.00,WUHU216CR1000,2013-07-28 14:08:00,
2013-07-28 07:13:00,53.0,50.8,0.00,SSW,197,1.5,3.1,92,0.00,,,0.00,WUHU216CR1000,2013-07-28 14:13:00,
2013-07-28 07:18:00,52.9,50.9,0.00,SSW,198,1.5,3.8,93,0.00,,,0.00,WUHU216CR1000,2013-07-28 14:18:00,
2013-07-28 07:23:00,52.9,50.9,0.00,SSW,198,1.5,3.8,93,0.00,,,0.00,WUHU216CR1000,2013-07-28 14:23:00,
2013-07-28 07:28:00,52.9,50.9,0.00,SSW,198,1.5,3.8,93,0.00,,,0.00,WUHU216CR1000,2013-07-28 14:28:00,
2013-07-28 07:33:00,52.9,50.9,0.00,South,178,2.3,4.7,93,0.00,,,0.00,WUHU216CR1000,2013-07-28 14:33:00,
2013-07-28 07:38:00,52.9,50.9,0.00,South,178,2.3,4.7,93,0.00,,,0.00,WUHU216CR1000,2013-07-28 14:38:00,
2013-07-28 07:43:00,52.9,50.9,0.00,South,178,2.3,4.7,93,0.00,,,0.00,WUHU216CR1000,2013-07-28 14:43:00,
2013-07-28 07:48:00,52.8,50.8,0.00,South,187,2.2,4.9,93,0.00,,,0.00,WUHU216CR1000,2013-07-28 14:48:00,
2013-07-28 07:53:00,52.8,50.8,0.00,South,187,2.2,4.9,93,0.00,,,0.00,WUHU216CR1000,2013-07-28 14:53:00,
2013-07-28 07:58:00,52.8,50.8,0.00,South,187,2.2,4.9,93,0.00,,,0.00,WUHU216CR1000,2013-07-28 14:58:00,
2013-07-28 08:03:00,53.0,50.7,0.00,SSW,198,2.0,5.0,92,0.00,,,0.00,WUHU216CR1000,2013-07-28 15:03:00,
2013-07-28 08:08:00,53.0,50.7,0.00,SSW,198,2.0,5.0,92,0.00,,,0.00,WUHU216CR1000,2013-07-28 15:08:00,
2013-07-28 08:13:00,53.0,50.7,0.00,SSW,198,2.0,5.0,92,0.00,,,0.00,WUHU216CR1000,2013-07-28 15:13:00,
2013-07-28 08:18:00,53.5,50.8,0.00,SSE,158,1.9,5.0,91,0.00,,,0.00,WUHU216CR1000,2013-07-28 15:18:00,
2013-07-28 08:23:00,53.5,50.8,0.00,SSE,158,1.9,4.7,91,0.00,,,0.00,WUHU216CR1000,2013-07-28 15:23:00,
2013-07-28 08:28:00,53.5,50.8,0.00,SSE,158,1.9,4.7,91,0.00,,,0.00,WUHU216CR1000,2013-07-28 15:28:00,
2013-07-28 08:33:00,53.4,50.6,0.00,SSE,159,2.1,5.5,90,0.00,,,0.00,WUHU216CR1000,2013-07-28 15:33:00,
2013-07-28 08:38:00,53.4,50.6,0.00,SSE,159,2.1,5.5,90,0.00,,,0.00,WUHU216CR1000,2013-07-28 15:38:00,
2013-07-28 08:43:00,53.4,50.6,0.00,SSE,159,2.1,5.5,90,0.00,,,0.00,WUHU216CR1000,2013-07-28 15:43:00,
2013-07-28 08:48:00,53.4,50.4,0.00,SE,136,1.9,5.5,90,0.00,,,0.00,WUHU216CR1000,2013-07-28 15:48:00,
2013-07-28 08:53:00,53.4,50.4,0.00,SE,136,1.9,5.3,90,0.00,,,0.00,WUHU216CR1000,2013-07-28 15:53:00,
2013-07-28 08:58:00,53.4,50.4,0.00,SE,136,1.9,5.3,90,0.00,,,0.00,WUHU216CR1000,2013-07-28 15:58:00,
2013-07-28 09:03:00,54.1,50.5,0.00,East,83,2.1,5.3,87,0.00,,,0.00,WUHU216CR1000,2013-07-28 16:03:00,
2013-07-28 09:08:00,54.1,50.5,0.00,East,83,2.1,4.5,87,0.00,,,0.00,WUHU216CR1000,2013-07-28 16:08:00,
2013-07-28 09:13:00,54.1,50.5,0.00,East,83,2.1,4.5,87,0.00,,,0.00,WUHU216CR1000,2013-07-28 16:13:00,
2013-07-28 09:18:00,54.4,50.6,0.00,SSE,163,1.9,5.2,87,0.00,,,0.00,WUHU216CR1000,2013-07-28 16:18:00,
2013-07-28 09:23:00,54.4,50.6,0.00,SSE,163,1.9,5.2,87,0.00,,,0.00,WUHU216CR1000,2013-07-28 16:23:00,
2013-07-28 09:28:00,54.4,50.6,0.00,SSE,163,1.9,5.2,87,0.00,,,0.00,WUHU216CR1000,2013-07-28 16:28:00,
2013-07-28 09:33:00,54.9,50.8,0.00,SE,137,1.9,5.5,86,0.00,,,0.00,WUHU216CR1000,2013-07-28 16:33:00,
2013-07-28 09:38:00,54.9,50.8,0.00,SE,137,1.9,5.5,86,0.00,,,0.00,WUHU216CR1000,2013-07-28 16:38:00,
2013-07-28 09:43:00,54.9,50.8,0.00,SE,137,1.9,5.5,86,0.00,,,0.00,WUHU216CR1000,2013-07-28 16:43:00,
2013-07-28 09:48:00,55.0,50.8,0.00,ESE,116,2.0,5.5,86,0.00,,,0.00,WUHU216CR1000,2013-07-28 16:48:00,
2013-07-28 09:53:00,55.0,50.8,0.00,ESE,116,2.0,5.4,86,0.00,,,0.00,WUHU216CR1000,2013-07-28 16:53:00,
2013-07-28 09:58:00,55.0,50.8,0.00,ESE,116,2.0,5.4,86,0.00,,,0.00,WUHU216CR1000,2013-07-28 16:58:00,
2013-07-28 10:03:00,55.7,50.7,0.00,East,89,3.3,7.3,83,0.00,,,0.00,WUHU216CR1000,2013-07-28 17:03:00,
2013-07-28 10:08:00,55.7,50.7,0.00,East,89,3.3,7.3,83,0.00,,,0.00,WUHU216CR1000,2013-07-28 17:08:00,
2013-07-28 10:13:00,55.7,50.7,0.00,East,89,3.3,7.3,83,0.00,,,0.00,WUHU216CR1000,2013-07-28 17:13:00,
2013-07-28 10:18:00,56.5,50.9,0.00,SE,124,3.1,7.3,82,0.00,,,0.00,WUHU216CR1000,2013-07-28 17:18:00,
2013-07-28 10:23:00,56.5,50.9,0.00,SE,124,3.1,6.9,82,0.00,,,0.00,WUHU216CR1000,2013-07-28 17:23:00,
2013-07-28 10:28:00,56.5,50.9,0.00,SE,124,3.1,6.9,82,0.00,,,0.00,WUHU216CR1000,2013-07-28 17:28:00,
2013-07-28 10:33:00,57.2,51.0,0.00,SSE,149,2.3,6.9,80,0.00,,,0.00,WUHU216CR1000,2013-07-28 17:33:00,
2013-07-28 10:38:00,57.2,51.0,0.00,SSE,149,2.3,6.9,80,0.00,,,0.00,WUHU216CR1000,2013-07-28 17:38:00,
2013-07-28 10:43:00,57.2,51.0,0.00,SSE,149,2.3,6.9,80,0.00,,,0.00,WUHU216CR1000,2013-07-28 17:43:00,
2013-07-28 10:48:00,58.3,51.3,0.00,SSE,157,3.5,7.0,77,0.00,,,0.00,WUHU216CR1000,2013-07-28 17:48:00,
2013-07-28 10:53:00,58.3,51.3,0.00,SSE,157,3.5,7.0,77,0.00,,,0.00,WUHU216CR1000,2013-07-28 17:53:00,
2013-07-28 10:58:00,58.3,51.3,0.00,SSE,157,3.5,7.0,77,0.00,,,0.00,WUHU216CR1000,2013-07-28 17:58:00,
2013-07-28 11:03:00,59.6,51.4,0.00,South,180,3.4,7.5,74,0.00,,,0.00,WUHU216CR1000,2013-07-28 18:03:00,
2013-07-28 11:08:00,59.6,51.4,0.00,South,180,3.4,7.5,74,0.00,,,0.00,WUHU216CR1000,2013-07-28 18:08:00,
2013-07-28 11:13:00,59.6,51.4,0.00,South,180,3.4,7.5,74,0.00,,,0.00,WUHU216CR1000,2013-07-28 18:13:00,
2013-07-28 11:18:00,61.1,51.7,0.00,South,175,3.2,7.5,71,0.00,,,0.00,WUHU216CR1000,2013-07-28 18:18:00,
2013-07-28 11:23:00,61.1,51.7,0.00,South,175,3.2,7.5,71,0.00,,,0.00,WUHU216CR1000,2013-07-28 18:23:00,
2013-07-28 11:28:00,61.1,51.7,0.00,South,175,3.2,7.5,71,0.00,,,0.00,WUHU216CR1000,2013-07-28 18:28:00,
2013-07-28 11:33:00,62.8,52.3,0.00,SE,124,3.0,7.5,68,0.00,,,0.00,WUHU216CR1000,2013-07-28 18:33:00,
2013-07-28 11:38:00,62.8,52.3,0.00,SE,124,3.0,6.7,68,0.00,,,0.00,WUHU216CR1000,2013-07-28 18:38:00,
2013-07-28 11:43:00,62.8,52.3,0.00,SE,124,3.0,6.7,68,0.00,,,0.00,WUHU216CR1000,2013-07-28 18:43:00,
2013-07-28 11:48:00,64.6,52.8,0.00,SE,124,4.2,8.9,65,0.00,,,0.00,WUHU216CR1000,2013-07-28 18:48:00,
2013-07-28 11:53:00,64.6,52.8,0.00,SE,124,4.2,8.9,65,0.00,,,0.00,WUHU216CR1000,2013-07-28 18:53:00,
2013-07-28 11:58:00,64.6,52.8,0.00,SE,124,4.2,8.9,65,0.00,,,0.00,WUHU216CR1000,2013-07-28 18:58:00,
2013-07-28 12:03:00,65.7,53.0,0.00,ESE,123,3.7,8.9,63,0.00,,,0.00,WUHU216CR1000,2013-07-28 19:03:00,
2013-07-28 12:08:00,65.7,53.0,0.00,ESE,123,3.7,8.1,63,0.00,,,0.00,WUHU216CR1000,2013-07-28 19:08:00,
2013-07-28 12:13:00,65.7,53.0,0.00,ESE,123,3.7,8.1,63,0.00,,,0.00,WUHU216CR1000,2013-07-28 19:13:00,
2013-07-28 12:18:00,66.9,53.4,0.00,SE,140,4.7,8.4,62,0.00,,,0.00,WUHU216CR1000,2013-07-28 19:18:00,
2013-07-28 12:23:00,66.9,53.4,0.00,SE,140,4.7,8.4,62,0.00,,,0.00,WUHU216CR1000,2013-07-28 19:23:00,
2013-07-28 12:28:00,66.9,53.4,0.00,SE,140,4.7,8.4,62,0.00,,,0.00,WUHU216CR1000,2013-07-28 19:28:00,
2013-07-28 12:33:00,67.8,53.6,0.00,SE,131,5.5,11.9,61,0.00,,,0.00,WUHU216CR1000,2013-07-28 19:33:00,
2013-07-28 12:38:00,67.8,53.6,0.00,SE,131,5.5,11.9,61,0.00,,,0.00,WUHU216CR1000,2013-07-28 19:38:00,
2013-07-28 12:43:00,67.8,53.6,0.00,SE,131,5.5,11.9,61,0.00,,,0.00,WUHU216CR1000,2013-07-28 19:43:00,
2013-07-28 12:48:00,69.1,54.1,0.00,ESE,121,5.0,11.9,59,0.00,,,0.00,WUHU216CR1000,2013-07-28 19:48:00,
2013-07-28 12:53:00,69.1,54.1,0.00,ESE,121,5.0,10.7,59,0.00,,,0.00,WUHU216CR1000,2013-07-28 19:53:00,
2013-07-28 12:58:00,69.1,54.1,0.00,ESE,121,5.0,10.7,59,0.00,,,0.00,WUHU216CR1000,2013-07-28 19:58:00,
2013-07-28 13:03:00,71.0,54.7,0.00,SE,137,4.7,10.7,57,0.00,,,0.00,WUHU216CR1000,2013-07-28 20:03:00,
2013-07-28 13:08:00,71.0,54.7,0.00,SE,137,4.7,10.0,57,0.00,,,0.00,WUHU216CR1000,2013-07-28 20:08:00,
2013-07-28 13:13:00,71.0,54.7,0.00,SE,137,4.7,10.0,57,0.00,,,0.00,WUHU216CR1000,2013-07-28 20:13:00,
2013-07-28 13:18:00,71.7,54.9,0.00,SE,143,4.6,10.0,55,0.00,,,0.00,WUHU216CR1000,2013-07-28 20:18:00,
2013-07-28 13:23:00,71.7,54.9,0.00,SE,143,4.6,9.1,55,0.00,,,0.00,WUHU216CR1000,2013-07-28 20:23:00,
2013-07-28 13:28:00,71.7,54.9,0.00,SE,143,4.6,9.1,55,0.00,,,0.00,WUHU216CR1000,2013-07-28 20:28:00,
2013-07-28 13:33:00,72.5,55.1,0.00,SE,131,4.9,11.0,54,0.00,,,0.00,WUHU216CR1000,2013-07-28 20:33:00,
2013-07-28 13:38:00,72.5,55.1,0.00,SE,131,4.9,11.0,54,0.00,,,0.00,WUHU216CR1000,2013-07-28 20:38:00,
2013-07-28 13:43:00,72.5,55.1,0.00,SE,131,4.9,11.0,54,0.00,,,0.00,WUHU216CR1000,2013-07-28 20:43:00,
2013-07-28 13:48:00,74.0,55.7,0.00,SE,144,4.6,11.0,53,0.00,,,0.00,WUHU216CR1000,2013-07-28 20:48:00,
2013-07-28 13:53:00,74.0,55.7,0.00,SE,144,4.6,9.2,53,0.00,,,0.00,WUHU216CR1000,2013-07-28 20:53:00,
2013-07-28 13:58:00,74.0,55.7,0.00,SE,144,4.6,9.2,53,0.00,,,0.00,WUHU216CR1000,2013-07-28 20:58:00,
2013-07-28 14:03:00,74.8,55.9,0.00,SSE,152,5.6,11.2,52,0.00,,,0.00,WUHU216CR1000,2013-07-28 21:03:00,
2013-07-28 14:08:00,74.8,55.9,0.00,SSE,152,5.6,11.2,52,0.00,,,0.00,WUHU216CR1000,2013-07-28 21:08:00,
2013-07-28 14:13:00,74.8,55.9,0.00,SSE,152,5.6,11.2,52,0.00,,,0.00,WUHU216CR1000,2013-07-28 21:13:00,
2013-07-28 14:18:00,75.5,56.1,0.00,SSE,151,5.9,11.8,51,0.00,,,0.00,WUHU216CR1000,2013-07-28 21:18:00,
2013-07-28 14:23:00,75.5,56.1,0.00,SSE,151,5.9,11.8,51,0.00,,,0.00,WUHU216CR1000,2013-07-28 21:23:00,
2013-07-28 14:28:00,75.5,56.1,0.00,SSE,151,5.9,11.8,51,0.00,,,0.00,WUHU216CR1000,2013-07-28 21:28:00,
2013-07-28 14:33:00,76.3,56.3,0.00,SSE,151,5.6,11.8,50,0.00,,,0.00,WUHU216CR1000,2013-07-28 21:33:00,
2013-07-28 14:38:00,76.3,56.3,0.00,SSE,151,5.6,10.3,50,0.00,,,0.00,WUHU216CR1000,2013-07-28 21:38:00,
2013-07-28 14:43:00,76.3,56.3,0.00,SSE,151,5.6,10.3,50,0.00,,,0.00,WUHU216CR1000,2013-07-28 21:43:00,
2013-07-28 14:48:00,76.5,56.4,0.00,SSE,156,6.2,11.7,50,0.00,,,0.00,WUHU216CR1000,2013-07-28 21:48:00,
2013-07-28 14:53:00,76.5,56.4,0.00,SSE,156,6.2,11.7,50,0.00,,,0.00,WUHU216CR1000,2013-07-28 21:53:00,
2013-07-28 14:58:00,76.5,56.4,0.00,SSE,156,6.2,11.7,50,0.00,,,0.00,WUHU216CR1000,2013-07-28 21:58:00,
2013-07-28 15:03:00,77.5,56.7,0.00,SSE,158,5.7,11.8,49,0.00,,,0.00,WUHU216CR1000,2013-07-28 22:03:00,
2013-07-28 15:08:00,77.5,56.7,0.00,SSE,158,5.7,11.8,49,0.00,,,0.00,WUHU216CR1000,2013-07-28 22:08:00,
2013-07-28 15:13:00,77.5,56.7,0.00,SSE,158,5.7,11.8,49,0.00,,,0.00,WUHU216CR1000,2013-07-28 22:13:00,
2013-07-28 15:18:00,77.9,56.6,0.00,SSE,149,5.5,12.2,48,0.00,,,0.00,WUHU216CR1000,2013-07-28 22:18:00,
2013-07-28 15:23:00,77.9,56.6,0.00,SSE,149,5.5,12.2,48,0.00,,,0.00,WUHU216CR1000,2013-07-28 22:23:00,
2013-07-28 15:28:00,77.9,56.6,0.00,SSE,149,5.5,12.2,48,0.00,,,0.00,WUHU216CR1000,2013-07-28 22:28:00,
2013-07-28 15:33:00,78.6,56.7,0.00,SE,145,6.1,12.6,47,0.00,,,0.00,WUHU216CR1000,2013-07-28 22:33:00,
2013-07-28 15:38:00,78.6,56.7,0.00,SE,145,6.1,12.6,47,0.00,,,0.00,WUHU216CR1000,2013-07-28 22:38:00,
2013-07-28 15:43:00,78.6,56.7,0.00,SE,145,6.1,12.6,47,0.00,,,0.00,WUHU216CR1000,2013-07-28 22:43:00,
2013-07-28 15:48:00,78.8,56.7,0.00,SSE,162,6.4,13.0,47,0.00,,,0.00,WUHU216CR1000,2013-07-28 22:48:00,
2013-07-28 15:53:00,78.8,56.7,0.00,SSE,162,6.4,13.0,47,0.00,,,0.00,WUHU216CR1000,2013-07-28 22:53:00,
2013-07-28 15:58:00,78.8,56.7,0.00,SSE,162,6.4,13.0,47,0.00,,,0.00,WUHU216CR1000,2013-07-28 22:58:00,
2013-07-28 16:03:00,78.4,56.4,0.00,SSE,161,6.2,14.0,47,0.00,,,0.00,WUHU216CR1000,2013-07-28 23:03:00,
2013-07-28 16:08:00,78.4,56.4,0.00,SSE,161,6.2,14.0,47,0.00,,,0.00,WUHU216CR1000,2013-07-28 23:08:00,
2013-07-28 16:13:00,78.4,56.4,0.00,SSE,161,6.2,14.0,47,0.00,,,0.00,WUHU216CR1000,2013-07-28 23:13:00,
2013-07-28 16:18:00,78.3,56.1,0.00,SSE,159,6.0,14.0,47,0.00,,,0.00,WUHU216CR1000,2013-07-28 23:18:00,
2013-07-28 16:23:00,78.3,56.1,0.00,SSE,159,6.0,13.7,47,0.00,,,0.00,WUHU216CR1000,2013-07-28 23:23:00,
2013-07-28 16:28:00,78.3,56.1,0.00,SSE,159,6.0,13.7,47,0.00,,,0.00,WUHU216CR1000,2013-07-28 23:28:00,
2013-07-28 16:33:00,78.1,55.9,0.00,SSE,160,6.0,14.5,46,0.00,,,0.00,WUHU216CR1000,2013-07-28 23:33:00,
2013-07-28 16:38:00,78.1,55.9,0.00,SSE,160,6.0,14.5,46,0.00,,,0.00,WUHU216CR1000,2013-07-28 23:38:00,
2013-07-28 16:43:00,78.1,55.9,0.00,SSE,160,6.0,14.5,46,0.00,,,0.00,WUHU216CR1000,2013-07-28 23:43:00,
2013-07-28 16:48:00,77.3,55.1,0.00,SSE,158,6.0,14.5,46,0.00,,,0.00,WUHU216CR1000,2013-07-28 23:48:00,
2013-07-28 16:53:00,77.3,55.1,0.00,SSE,158,6.0,11.7,46,0.00,,,0.00,WUHU216CR1000,2013-07-28 23:53:00,
2013-07-28 16:58:00,77.3,55.1,0.00,SSE,158,6.0,11.7,46,0.00,,,0.00,WUHU216CR1000,2013-07-28 23:58:00,
2013-07-28 17:03:00,76.5,54.7,0.00,SSE,159,6.4,13.2,47,0.00,,,0.00,WUHU216CR1000,2013-07-29 00:03:00,
2013-07-28 17:08:00,76.5,54.7,0.00,SSE,159,6.4,13.2,47,0.00,,,0.00,WUHU216CR1000,2013-07-29 00:08:00,
2013-07-28 17:13:00,76.5,54.7,0.00,SSE,159,6.4,13.2,47,0.00,,,0.00,WUHU216CR1000,2013-07-29 00:13:00,
2013-07-28 17:18:00,76.2,54.5,0.00,SSE,167,5.8,14.1,47,0.00,,,0.00,WUHU216CR1000,2013-07-29 00:18:00,
2013-07-28 17:23:00,76.2,54.5,0.00,SSE,167,5.8,14.1,47,0.00,,,0.00,WUHU216CR1000,2013-07-29 00:23:00,
2013-07-28 17:28:00,76.2,54.5,0.00,SSE,167,5.8,14.1,47,0.00,,,0.00,WUHU216CR1000,2013-07-29 00:28:00,
2013-07-28 17:33:00,75.6,54.2,0.00,South,178,6.0,14.1,47,0.00,,,0.00,WUHU216CR1000,2013-07-29 00:33:00,
2013-07-28 17:38:00,75.6,54.2,0.00,South,178,6.0,12.2,47,0.00,,,0.00,WUHU216CR1000,2013-07-29 00:38:00,
2013-07-28 17:43:00,75.6,54.2,0.00,South,178,6.0,12.2,47,0.00,,,0.00,WUHU216CR1000,2013-07-29 00:43:00,
2013-07-28 17:48:00,74.1,54.1,0.00,SSE,159,5.8,13.3,50,0.00,,,0.00,WUHU216CR1000,2013-07-29 00:48:00,
2013-07-28 17:53:00,74.1,54.1,0.00,SSE,159,5.8,13.3,50,0.00,,,0.00,WUHU216CR1000,2013-07-29 00:53:00,
2013-07-28 17:58:00,74.1,54.1,0.00,SSE,159,5.8,13.3,50,0.00,,,0.00,WUHU216CR1000,2013-07-29 00:58:00,
2013-07-28 18:03:00,72.4,53.5,0.00,SSE,160,6.3,13.3,52,0.00,,,0.00,WUHU216CR1000,2013-07-29 01:03:00,
2013-07-28 18:08:00,72.4,53.5,0.00,SSE,160,6.3,12.9,52,0.00,,,0.00,WUHU216CR1000,2013-07-29 01:08:00,
2013-07-28 18:13:00,72.4,53.5,0.00,SSE,160,6.3,12.9,52,0.00,,,0.00,WUHU216CR1000,2013-07-29 01:13:00,
2013-07-28 18:18:00,71.4,53.1,0.00,SSE,158,6.1,12.9,52,0.00,,,0.00,WUHU216CR1000,2013-07-29 01:18:00,
2013-07-28 18:23:00,71.4,53.1,0.00,SSE,158,6.1,12.1,52,0.00,,,0.00,WUHU216CR1000,2013-07-29 01:23:00,
2013-07-28 18:28:00,71.4,53.1,0.00,SSE,158,6.1,12.1,52,0.00,,,0.00,WUHU216CR1000,2013-07-29 01:28:00,
2013-07-28 18:34:00,70.5,52.8,0.00,SSE,168,6.5,12.9,53,0.00,,,0.00,WUHU216CR1000,2013-07-29 01:34:00,
2013-07-28 18:39:00,70.5,52.8,0.00,SSE,168,6.5,12.9,53,0.00,,,0.00,WUHU216CR1000,2013-07-29 01:39:00,
2013-07-28 18:44:00,70.5,52.8,0.00,SSE,168,6.5,12.9,53,0.00,,,0.00,WUHU216CR1000,2013-07-29 01:44:00,
2013-07-28 18:49:00,69.8,52.6,0.00,South,178,6.0,12.9,54,0.00,,,0.00,WUHU216CR1000,2013-07-29 01:49:00,
2013-07-28 18:54:00,69.8,52.6,0.00,South,178,6.0,12.7,54,0.00,,,0.00,WUHU216CR1000,2013-07-29 01:54:00,
2013-07-28 18:59:00,69.8,52.6,0.00,South,178,6.0,12.7,54,0.00,,,0.00,WUHU216CR1000,2013-07-29 01:59:00,
2013-07-28 19:05:00,69.0,52.6,0.00,South,169,5.0,12.7,56,0.00,,,0.00,WUHU216CR1000,2013-07-29 02:05:00,
2013-07-28 19:10:00,69.0,52.6,0.00,South,169,5.0,9.5,56,0.00,,,0.00,WUHU216CR1000,2013-07-29 02:10:00,
2013-07-28 19:15:00,69.0,52.6,0.00,South,169,5.0,9.5,56,0.00,,,0.00,WUHU216CR1000,2013-07-29 02:15:00,
2013-07-28 19:20:00,67.6,52.1,0.00,SSE,159,4.4,9.8,58,0.00,,,0.00,WUHU216CR1000,2013-07-29 02:20:00,
2013-07-28 19:25:00,67.6,52.1,0.00,SSE,159,4.4,9.8,58,0.00,,,0.00,WUHU216CR1000,2013-07-29 02:25:00,
2013-07-28 19:30:00,67.6,52.1,0.00,SSE,159,4.4,9.8,58,0.00,,,0.00,WUHU216CR1000,2013-07-29 02:30:00,
2013-07-28 19:35:00,66.1,51.6,0.00,SSE,161,4.5,9.8,60,0.00,,,0.00,WUHU216CR1000,2013-07-29 02:35:00,
2013-07-28 19:40:00,66.1,51.6,0.00,SSE,161,4.5,9.1,60,0.00,,,0.00,WUHU216CR1000,2013-07-29 02:40:00,
2013-07-28 19:46:00,66.1,51.6,0.00,SSE,161,4.5,9.1,60,0.00,,,0.00,WUHU216CR1000,2013-07-29 02:46:00,
2013-07-28 19:51:00,64.6,51.0,0.00,SSE,159,3.6,9.1,61,0.00,,,0.00,WUHU216CR1000,2013-07-29 02:51:00,
2013-07-28 19:56:00,64.6,51.0,0.00,SSE,159,3.6,8.1,61,0.00,,,0.00,WUHU216CR1000,2013-07-29 02:56:00,
2013-07-28 20:01:00,64.6,51.0,0.00,SSE,159,3.6,8.1,61,0.00,,,0.00,WUHU216CR1000,2013-07-29 03:01:00,
2013-07-28 20:06:00,63.3,50.8,0.00,SE,144,3.7,8.1,64,0.00,,,0.00,WUHU216CR1000,2013-07-29 03:06:00,
2013-07-28 20:11:00,63.3,50.8,0.00,SE,144,3.7,7.1,64,0.00,,,0.00,WUHU216CR1000,2013-07-29 03:11:00,
2013-07-28 20:17:00,61.8,50.6,0.00,SE,144,2.9,7.1,67,0.00,,,0.00,WUHU216CR1000,2013-07-29 03:17:00,
2013-07-28 20:22:00,61.8,50.6,0.00,SE,144,2.9,6.5,67,0.00,,,0.00,WUHU216CR1000,2013-07-29 03:22:00,
2013-07-28 20:27:00,61.8,50.6,0.00,SE,144,2.9,6.5,67,0.00,,,0.00,WUHU216CR1000,2013-07-29 03:27:00,
2013-07-28 20:32:00,60.5,50.2,0.00,SE,124,2.6,6.5,69,0.00,,,0.00,WUHU216CR1000,2013-07-29 03:32:00,
2013-07-28 20:38:00,60.5,50.2,0.00,SE,124,2.6,5.7,69,0.00,,,0.00,WUHU216CR1000,2013-07-29 03:38:00,
2013-07-28 20:43:00,60.5,50.2,0.00,SE,124,2.6,5.7,69,0.00,,,0.00,WUHU216CR1000,2013-07-29 03:43:00,
2013-07-28 20:48:00,59.0,49.9,0.00,ESE,123,2.8,6.0,72,0.00,,,0.00,WUHU216CR1000,2013-07-29 03:48:00,
2013-07-28 20:53:00,59.0,49.9,0.00,ESE,123,2.8,6.0,72,0.00,,,0.00,WUHU216CR1000,2013-07-29 03:53:00,
2013-07-28 20:58:00,59.0,49.9,0.00,ESE,123,2.8,6.0,72,0.00,,,0.00,WUHU216CR1000,2013-07-29 03:58:00,
2013-07-28 21:01:00,59.0,49.9,0.00,ESE,123,2.8,6.0,72,0.00,,,0.00,WUHU216CR1000,2013-07-29 04:01:00,
2013-07-28 21:06:00,57.8,49.8,0.00,ESE,121,3.1,5.9,75,0.00,,,0.00,WUHU216CR1000,2013-07-29 04:06:00,
2013-07-28 21:11:00,57.8,49.8,0.00,ESE,121,3.1,5.9,75,0.00,,,0.00,WUHU216CR1000,2013-07-29 04:11:00,
2013-07-28 21:16:00,56.6,49.7,0.00,ESE,120,3.0,6.5,78,0.00,,,0.00,WUHU216CR1000,2013-07-29 04:16:00,
2013-07-28 21:21:00,56.6,49.7,0.00,ESE,120,3.0,6.5,78,0.00,,,0.00,WUHU216CR1000,2013-07-29 04:21:00,
2013-07-28 21:26:00,56.6,49.7,0.00,ESE,120,3.0,6.5,78,0.00,,,0.00,WUHU216CR1000,2013-07-29 04:26:00,
2013-07-28 21:31:00,55.6,49.6,0.00,SE,137,2.4,6.5,80,0.00,,,0.00,WUHU216CR1000,2013-07-29 04:31:00,
2013-07-28 21:36:00,55.6,49.6,0.00,SE,137,2.4,5.8,80,0.00,,,0.00,WUHU216CR1000,2013-07-29 04:36:00,
2013-07-28 21:42:00,55.6,49.6,0.00,SE,137,2.4,5.8,80,0.00,,,0.00,WUHU216CR1000,2013-07-29 04:42:00,
2013-07-28 21:47:00,54.9,49.5,0.00,SE,136,1.4,5.8,82,0.00,,,0.00,WUHU216CR1000,2013-07-29 04:47:00,
2013-07-28 21:52:00,54.9,49.5,0.00,SE,136,1.4,3.4,82,0.00,,,0.00,WUHU216CR1000,2013-07-29 04:52:00,
2013-07-28 21:57:00,54.9,49.5,0.00,SE,136,1.4,3.4,82,0.00,,,0.00,WUHU216CR1000,2013-07-29 04:57:00,
2013-07-28 22:02:00,54.3,49.5,0.00,ESE,102,2.0,3.8,84,0.00,,,0.00,WUHU216CR1000,2013-07-29 05:02:00,
2013-07-28 22:07:00,54.3,49.5,0.00,ESE,102,2.0,3.8,84,0.00,,,0.00,WUHU216CR1000,2013-07-29 05:07:00,
2013-07-28 22:12:00,54.3,49.5,0.00,ESE,102,2.0,3.8,84,0.00,,,0.00,WUHU216CR1000,2013-07-29 05:12:00,
2013-07-28 22:17:00,53.8,49.6,0.00,SE,124,2.5,4.6,86,0.00,,,0.00,WUHU216CR1000,2013-07-29 05:17:00,
2013-07-28 22:22:00,53.8,49.6,0.00,SE,124,2.5,4.6,86,0.00,,,0.00,WUHU216CR1000,2013-07-29 05:22:00,
2013-07-28 22:27:00,53.8,49.6,0.00,SE,124,2.5,4.6,86,0.00,,,0.00,WUHU216CR1000,2013-07-29 05:27:00,
2013-07-28 22:32:00,53.3,49.7,0.00,ESE,118,2.8,5.2,88,0.00,,,0.00,WUHU216CR1000,2013-07-29 05:32:00,
2013-07-28 22:37:00,53.3,49.7,0.00,ESE,118,2.8,5.2,88,0.00,,,0.00,WUHU216CR1000,2013-07-29 05:37:00,
2013-07-28 22:42:00,53.3,49.7,0.00,ESE,118,2.8,5.2,88,0.00,,,0.00,WUHU216CR1000,2013-07-29 05:42:00,
2013-07-28 22:47:00,53.5,50.0,0.00,SSE,147,2.6,5.4,88,0.00,,,0.00,WUHU216CR1000,2013-07-29 05:47:00,
2013-07-28 22:52:00,53.5,50.0,0.00,SSE,147,2.6,5.4,88,0.00,,,0.00,WUHU216CR1000,2013-07-29 05:52:00,
2013-07-28 22:57:00,53.5,50.0,0.00,SSE,147,2.6,5.4,88,0.00,,,0.00,WUHU216CR1000,2013-07-29 05:57:00,
2013-07-28 23:02:00,54.0,50.2,0.00,SSE,147,3.1,7.2,87,0.00,,,0.00,WUHU216CR1000,2013-07-29 06:02:00,
2013-07-28 23:07:00,54.0,50.2,0.00,SSE,147,3.1,7.2,87,0.00,,,0.00,WUHU216CR1000,2013-07-29 06:07:00,
2013-07-28 23:12:00,54.0,50.2,0.00,SSE,147,3.1,7.2,87,0.00,,,0.00,WUHU216CR1000,2013-07-29 06:12:00,
2013-07-28 23:17:00,53.8,50.0,0.00,SE,132,3.5,7.2,87,0.00,,,0.00,WUHU216CR1000,2013-07-29 06:17:00,
2013-07-28 23:22:00,53.8,50.0,0.00,SE,132,3.5,7.1,87,0.00,,,0.00,WUHU216CR1000,2013-07-29 06:22:00,
2013-07-28 23:27:00,53.8,50.0,0.00,SE,132,3.5,7.1,87,0.00,,,0.00,WUHU216CR1000,2013-07-29 06:27:00,
2013-07-28 23:32:00,53.7,50.0,0.00,SSE,151,2.5,7.1,87,0.00,,,0.00,WUHU216CR1000,2013-07-29 06:32:00,
2013-07-28 23:37:00,53.7,50.0,0.00,SSE,151,2.5,6.7,87,0.00,,,0.00,WUHU216CR1000,2013-07-29 06:37:00,
2013-07-28 23:42:00,53.7,50.0,0.00,SSE,151,2.5,6.7,87,0.00,,,0.00,WUHU216CR1000,2013-07-29 06:42:00,
2013-07-28 23:47:00,53.8,50.0,0.00,SE,141,2.9,6.7,87,0.00,,,0.00,WUHU216CR1000,2013-07-29 06:47:00,
2013-07-28 23:52:00,53.8,50.0,0.00,SE,141,2.9,6.7,87,0.00,,,0.00,WUHU216CR1000,2013-07-29 06:52:00,
2013-07-28 23:57:00,53.8,50.0,0.00,SE,141,2.9,6.7,87,0.00,,,0.00,WUHU216CR1000,2013-07-29 06:57:00,